{"data":{"norad_id":52668,"intl_designator":"2022-053N","name":"STARLINK-4067","alt_names":[],"object_type":"PAYLOAD","status":"ACTIVE","operator":null,"country":"US","launch_date":"2022-05-18","launch_site_code":"AFETR","launch_vehicle":null,"mission":null,"orbit_class":"UNKNOWN","rcs_meters":null,"size_class":null,"mass_kg":null,"dimensions":null,"purposes":["comms"],"wikipedia_slug":null,"has_3d_model":false,"image_url":null,"decayed_at":null,"tle_current":{"epoch":"2026-05-25T00:57:59.546592Z","epoch_age_seconds":75535,"freshness":"FRESH","line1":"1 52668U 22053N   26145.04027253 -.00000733  00000+0 -27972-4 0  9995","line2":"2 52668  53.2116 171.3704 0001220  60.0557 300.0556 15.08835486222573","mean_motion":15.08835486,"eccentricity":0.000122,"inclination_deg":53.2116,"raan_deg":171.3704,"arg_perigee_deg":60.0557,"mean_anomaly_deg":300.0556,"bstar":-2.7972e-5,"rev_number":22257,"period_min":95.437840199366,"perigee_km":538.9132033999,"apogee_km":540.6011695814,"semimajor_km":6917.8941864906,"source":"CELESTRAK","updated_at":"2026-05-25T13:38:17.231752Z"}}}